Weather History for St. Johnsbury, VT

Change the Weather History Date:

Monday, January 13, 2014

  Actual Average Record
Temperature  
Mean Temperature 35 °F 17 °F  
Max Temperature 43 °F 27 °F 58 °F (1932)
Min Temperature 27 °F 6 °F -27 °F (1912)
Degree Days  
Heating Degree Days 30 48  
Month to date heating degree days 438 620  
Since 1 July heating degree days 3593 3573  
Moisture  
Dew Point 24 °F    
Average Humidity 65    
Maximum Humidity 85    
Minimum Humidity 45    
Precipitation  
Precipitation 0.00 in 0.09 in 0.77 in (2005)
Month to date precipitation 1.06 1.05  
Year to date precipitation 1.06 1.05  
Sea Level Pressure  
Sea Level Pressure 29.92 in    
Wind  
Wind Speed - (North)    
Max Wind Speed -    
Max Gust Speed -    
T = Trace of Precipitation, MM = Missing Value Source: NWS Daily Summary

Daily Weather History Graph

Daily Weather History Graph

Search for Another Location

Airport:

Trip Planner

Search our weather history database for the weather conditions in past years. The results will help you decide how hot, cold, wet, or windy it might be!

Date:

Astronomy

Jan. 13, 2014 Rise Set
Actual Time 7:21 AM EST 4:32 PM EST
Civil Twilight 6:49 AM EST 5:04 PM EST
Nautical Twilight 6:13 AM EST 5:40 PM EST
Astronomical Twilight 5:38 AM EST 6:15 PM EST
Moon 2:45 PM EST (1/13) 5:07 AM EST (1/13)
Length of Visible Light 10h 15m
Length of Day
9h 10m
Waxing Gibbous, 95% of the Moon is Illuminated
Jan 13
Waxing Gibbous
Jan 15
Full
Jan 24
Last Quarter
Jan 30
New
Feb 6
First Quarter

Hourly Weather History & Observations

Time (EST) Temp. Dew Point Humidity Pressure Visibility Wind Dir Wind Speed Gust Speed Precip Events Conditions
12:54 AM 34.0 °F 23.0 °F 64% 29.93 in - North - - N/A   Unknown
2:54 AM 33.1 °F 23.0 °F 66% 29.99 in - North - - N/A   Unknown
3:54 AM 30.0 °F 24.1 °F 79% 29.99 in - North - - N/A   Unknown
4:54 AM 28.0 °F 24.1 °F 85% 30.01 in - North - - N/A   Unknown
5:54 AM 28.0 °F 24.1 °F 85% 30.00 in - North - - N/A   Unknown
6:54 AM 27.0 °F 23.0 °F 85% 30.01 in - North - - N/A   Unknown
7:54 AM 27.0 °F 23.0 °F 85% 30.01 in - North - - N/A   Unknown
8:54 AM 30.9 °F 24.1 °F 76% 30.01 in - North - - N/A   Unknown
9:54 AM 35.1 °F 24.1 °F 64% 30.01 in - North - - N/A   Unknown
10:54 AM 37.0 °F 23.0 °F 57% 29.99 in - North - - N/A   Unknown
11:54 AM 37.9 °F 23.0 °F 55% 29.94 in - North - - N/A   Unknown
12:54 PM 39.0 °F 23.0 °F 53% 29.92 in - North - - N/A   Unknown
1:54 PM 41.0 °F 21.9 °F 47% 29.87 in - North - - N/A   Unknown
2:54 PM 42.1 °F 23.0 °F 47% 29.87 in - North - - N/A   Unknown
3:54 PM 42.1 °F 23.0 °F 47% 29.89 in - North - - N/A   Unknown
4:54 PM 42.1 °F 23.0 °F 47% 29.88 in - North - - N/A   Unknown
5:54 PM 43.0 °F 23.0 °F 45% 29.86 in - North - - N/A   Unknown
6:54 PM 43.0 °F 24.1 °F 47% 29.87 in - North - - N/A   Unknown
7:54 PM 43.0 °F 25.0 °F 49% 29.85 in - North - - N/A   Unknown
8:54 PM 43.0 °F 26.1 °F 51% 29.83 in - North - - N/A   Unknown
9:54 PM 42.1 °F 27.0 °F 55% 29.81 in - North - - N/A   Unknown
10:54 PM 42.1 °F 28.0 °F 58% 29.79 in - North - - N/A   Unknown
11:54 PM 42.1 °F 28.9 °F 60% 29.79 in - North - - N/A   Unknown